OYREG EKRK-EKAH

Flight info

Callsign OYREG
Flight time 0h 23m
Altitude 10000
Route TNO
Aircraft B60T/L-SDFGRY/C

Departure

Time 2026-04-30 09:26
Airport Copenhagen Roskilde Airport (EKRK)

Arrival

Time 2026-04-30 09:49
Airport Aarhus Airport (EKAH)
Time Latitude Longitude Altitude Speed Heading
2026-04-30 09:17 55.59021 12.12799 137 ft 0 kts 117°
2026-04-30 09:20 55.59022 12.12799 137 ft 0 kts 117°
2026-04-30 09:20 55.59022 12.12798 137 ft 0 kts 117°
2026-04-30 09:23 55.59021 12.12801 137 ft 2 kts 118°
2026-04-30 09:23 55.58982 12.12863 137 ft 11 kts 147°
2026-04-30 09:23 55.58920 12.13019 137 ft 18 kts 116°
2026-04-30 09:23 55.58844 12.13013 137 ft 15 kts 201°
2026-04-30 09:24 55.58745 12.13103 137 ft 21 kts 118°
2026-04-30 09:24 55.58672 12.13363 137 ft 26 kts 115°
2026-04-30 09:24 55.58595 12.13629 137 ft 18 kts 132°
2026-04-30 09:24 55.58459 12.13720 137 ft 20 kts 171°
2026-04-30 09:25 55.58415 12.13638 137 ft 1 kts 292°
2026-04-30 09:25 55.58416 12.13636 137 ft 0 kts 295°
2026-04-30 09:26 55.58418 12.13628 137 ft 12 kts 294°
2026-04-30 09:26 55.58599 12.12978 151 ft 98 kts 297°
2026-04-30 09:26 55.58959 12.11696 384 ft 140 kts 296°
2026-04-30 09:26 55.59405 12.10030 835 ft 157 kts 295°
2026-04-30 09:27 55.59899 12.08235 1267 ft 166 kts 297°
2026-04-30 09:27 55.60416 12.06396 1743 ft 166 kts 297°
2026-04-30 09:27 55.60907 12.04590 2390 ft 162 kts 298°
2026-04-30 09:27 55.61401 12.02806 2980 ft 162 kts 297°
2026-04-30 09:28 55.61892 12.01036 3558 ft 163 kts 298°
2026-04-30 09:28 55.62397 11.99194 4142 ft 165 kts 298°
2026-04-30 09:28 55.62898 11.97363 4701 ft 169 kts 299°
2026-04-30 09:28 55.63416 11.95483 5292 ft 172 kts 299°
2026-04-30 09:29 55.63943 11.93565 5846 ft 174 kts 300°
2026-04-30 09:29 55.64454 11.91701 6395 ft 176 kts 301°
2026-04-30 09:29 55.64993 11.89739 6953 ft 178 kts 300°
2026-04-30 09:29 55.65533 11.87762 7484 ft 179 kts 301°
2026-04-30 09:30 55.66079 11.85770 8033 ft 180 kts 301°
2026-04-30 09:30 55.66623 11.83774 8579 ft 181 kts 302°
2026-04-30 09:30 55.67171 11.81761 9110 ft 182 kts 301°
2026-04-30 09:30 55.67724 11.79734 9657 ft 183 kts 302°
2026-04-30 09:31 55.68281 11.77696 10209 ft 183 kts 302°
2026-04-30 09:31 55.68847 11.75630 10467 ft 196 kts 302°
2026-04-30 09:31 55.69473 11.73355 10485 ft 213 kts 301°
2026-04-30 09:31 55.70132 11.70928 10489 ft 224 kts 301°
2026-04-30 09:32 55.70815 11.68405 10488 ft 229 kts 301°
2026-04-30 09:32 55.71511 11.65832 10486 ft 233 kts 301°
2026-04-30 09:32 55.72205 11.63270 10490 ft 234 kts 301°
2026-04-30 09:32 55.72910 11.60662 10490 ft 235 kts 301°
2026-04-30 09:33 55.73618 11.58042 10486 ft 235 kts 301°
2026-04-30 09:33 55.74325 11.55424 10492 ft 235 kts 301°
2026-04-30 09:33 55.75034 11.52799 10494 ft 236 kts 301°
2026-04-30 09:33 55.75741 11.50174 10495 ft 236 kts 301°
2026-04-30 09:34 55.76446 11.47546 10495 ft 235 kts 301°
2026-04-30 09:34 55.77215 11.44997 10486 ft 231 kts 312°
2026-04-30 09:34 55.78345 11.43041 10487 ft 224 kts 330°
2026-04-30 09:34 55.79678 11.41661 10491 ft 221 kts 336°
2026-04-30 09:35 55.81018 11.40307 10485 ft 222 kts 335°
2026-04-30 09:35 55.82343 11.38950 10480 ft 222 kts 335°
2026-04-30 09:35 55.83686 11.37592 10491 ft 222 kts 335°
2026-04-30 09:35 55.85029 11.36236 10491 ft 222 kts 335°
2026-04-30 09:36 55.86370 11.34877 10494 ft 222 kts 335°
2026-04-30 09:36 55.87710 11.33517 10489 ft 222 kts 335°
2026-04-30 09:36 55.89056 11.32149 10474 ft 223 kts 335°
2026-04-30 09:36 55.90404 11.30781 10479 ft 223 kts 335°
2026-04-30 09:37 55.91758 11.29402 10337 ft 225 kts 335°
2026-04-30 09:37 55.93109 11.28026 10068 ft 221 kts 334°
2026-04-30 09:37 55.94427 11.26680 9793 ft 217 kts 334°
2026-04-30 09:37 55.95732 11.25350 9521 ft 215 kts 334°
2026-04-30 09:38 55.97026 11.24032 9252 ft 214 kts 334°
2026-04-30 09:38 55.98312 11.22717 8989 ft 213 kts 334°
2026-04-30 09:38 55.99598 11.21405 8700 ft 213 kts 334°
2026-04-30 09:38 56.00879 11.20093 8394 ft 212 kts 334°
2026-04-30 09:39 56.02155 11.18789 8090 ft 211 kts 333°
2026-04-30 09:39 56.03428 11.17484 7791 ft 210 kts 333°
2026-04-30 09:39 56.04697 11.16184 7503 ft 210 kts 333°
2026-04-30 09:39 56.05946 11.14901 7221 ft 209 kts 333°
2026-04-30 09:40 56.07210 11.13604 6941 ft 209 kts 333°
2026-04-30 09:40 56.08469 11.12311 6652 ft 208 kts 332°
2026-04-30 09:40 56.09720 11.11025 6361 ft 207 kts 332°
2026-04-30 09:40 56.10965 11.09744 6064 ft 206 kts 332°
2026-04-30 09:41 56.12206 11.08465 5784 ft 205 kts 332°
2026-04-30 09:41 56.13441 11.07193 5499 ft 204 kts 331°
2026-04-30 09:41 56.14666 11.05930 5213 ft 203 kts 330°
2026-04-30 09:41 56.15886 11.04670 4917 ft 201 kts 330°
2026-04-30 09:42 56.17099 11.03418 4631 ft 200 kts 330°
2026-04-30 09:42 56.18307 11.02173 4354 ft 200 kts 330°
2026-04-30 09:42 56.19522 11.00965 4068 ft 199 kts 330°
2026-04-30 09:42 56.20726 10.99784 3780 ft 194 kts 331°
2026-04-30 09:43 56.21905 10.98632 3493 ft 191 kts 330°
2026-04-30 09:43 56.23066 10.97508 3202 ft 189 kts 331°
2026-04-30 09:43 56.24205 10.96411 2919 ft 188 kts 331°
2026-04-30 09:43 56.25343 10.95316 2624 ft 181 kts 330°
2026-04-30 09:44 56.26428 10.94277 2336 ft 173 kts 330°
2026-04-30 09:44 56.27259 10.92807 2026 ft 169 kts 294°
2026-04-30 09:44 56.27456 10.90802 2000 ft 159 kts 280°
2026-04-30 09:44 56.27637 10.88877 1991 ft 154 kts 281°
2026-04-30 09:45 56.27818 10.86991 1991 ft 152 kts 282°
2026-04-30 09:45 56.28010 10.85122 1989 ft 150 kts 282°
2026-04-30 09:45 56.28180 10.83385 1983 ft 135 kts 282°
2026-04-30 09:45 56.28341 10.81759 1972 ft 134 kts 282°
2026-04-30 09:46 56.28505 10.80141 1885 ft 131 kts 283°
2026-04-30 09:46 56.28663 10.78558 1700 ft 122 kts 281°
2026-04-30 09:46 56.28802 10.77214 1545 ft 102 kts 281°
2026-04-30 09:46 56.28924 10.75970 1396 ft 100 kts 281°
2026-04-30 09:47 56.29048 10.74742 1274 ft 99 kts 282°
2026-04-30 09:47 56.29171 10.73528 1129 ft 97 kts 280°
2026-04-30 09:47 56.29291 10.72341 999 ft 96 kts 279°
2026-04-30 09:47 56.29411 10.71161 867 ft 95 kts 279°
2026-04-30 09:48 56.29527 10.69994 742 ft 95 kts 279°
2026-04-30 09:48 56.29646 10.68826 611 ft 96 kts 279°
2026-04-30 09:48 56.29753 10.67640 474 ft 95 kts 279°
2026-04-30 09:48 56.29838 10.66872 412 ft 95 kts 279°
2026-04-30 09:49 56.29942 10.65710 317 ft 95 kts 279°
2026-04-30 09:49 56.30070 10.64527 168 ft 96 kts 279°
2026-04-30 09:49 56.30173 10.63484 72 ft 69 kts 278°
2026-04-30 09:49 56.30216 10.63024 75 ft 12 kts 279°
2026-04-30 09:50 56.30286 10.62909 80 ft 11 kts
2026-04-30 09:50 56.30374 10.62934 80 ft 18 kts 11°
2026-04-30 09:50 56.30509 10.62981 80 ft 19 kts
2026-04-30 09:50 56.30621 10.62968 80 ft 14 kts 307°
2026-04-30 09:51 56.30639 10.62831 80 ft 10 kts 279°
2026-04-30 09:51 56.30652 10.62690 80 ft 13 kts 279°
2026-04-30 09:51 56.30668 10.62502 80 ft 15 kts 277°
2026-04-30 09:51 56.30692 10.62362 82 ft 10 kts 300°
2026-04-30 09:52 56.30750 10.62333 80 ft 1 kts 24°
2026-04-30 09:52 56.30761 10.62316 80 ft 4 kts 268°
2026-04-30 09:52 56.30747 10.62288 81 ft 0 kts 231°